Showing default

SHIJIAN 6 05A (SJ-6 05A), 49961

Orbit data source: Space-Track

SHIJIAN 6 05A (SJ-6 05A), 49961 is a payload satellite owned by CASC (CN) in SSO that was launched on Fri, 10 Dec 2021 UTC via a CHANG ZHENG 4B launch vehicle from the Jiuquan Satellite Launch Center, China (JSC). Payload-class satellites include a variety of spacecraft equipped with specific instruments for various scientific and technological missions. These include communications satellites like Starlink; space stations such as the ISS; scientific satellites like the Hubble; Earth observation satellites from companies like Planet Labs, Umbra, and HawkEye 360; GPS; miniature CubeSats for education and research; and military/defense satellites.

Loading next visibility...
Identifier
49961, 2021-122A
Orbit
SSO
Country
Flag of CNCN / PRC
Related business
Manufacturer
SAST
Mission
Operational Defense Sigint
Bus & Motor
FY-1?, Unknown motor
Mass
~1,000 kg wet, ~1,000 kg dry
Launch date (UTC)
2021-12-10 (4 years ago)
Launch vehicle
CHANG ZHENG 4B
Launch site
Jiuquan Satellite Launch Center, China (JSC)
Object type
Payload
Rocket body
Debris
Shape & HBR
Box + 2 Pan, 4.3 m
Radar Cross Section
5.659 m², Large (>1 m²)

Expand to show TLE details & history
Last TLE update: 21 hours ago

TLE from 21 hours ago
0 SHIJIAN 6 05A (SJ-6 05A)
1 49961U 21122A   25306.62553403  .00003255  00000-0  27829-3 0  9997
2 49961  97.3819 281.7403 0002905  93.4468 266.7088 14.98270933214812
Epoch: 2025-11-02T15:00Z
TLE epoch observation values (Epoch: 2025-11-02T15:00:46.140Z)
Latitude
0.00002°
Longitude
14.40947°
Altitude
575.417 km
Speed
7.573 km/s
True Right ascension
18h 46m 57s
True Declination
0° 00' 00"
Sunlit
Object was in daylight at epoch
Visualization orbit readout
Latitude
Unknown
Longitude
Unknown
Altitude
Unknown
Speed
Unknown
Apparent Right ascension
Unknown
Apparent Declination
Unknown
Sunlit
N/A
Visualization observer readout
Local Sidereal Time
08:05:43
Azimuth
Unknown
Elevation
Unknown
Doppler factor
Unknown
Orbital elements
Apogee altitude
571.251 km
Perigee altitude
567.214 km
Semi-major axis
6,947.369 km
Eccentricity
0.00029
Inclination
97.3819°
RAAN
281.7403°
Arg. of periapsis
93.4468°
True anomaly
266.67557°
Mean anomaly
266.7088°
Eccentric anomaly
266.69218°
Mean motion
3.74811 °/min
Orbital period
96.05 mins
BSTAR
0.00027829
Loading maneuver chart data...
Computing Atmospheric mass density...
Loading historical data...
Loading historical data...
Loading historical data...
Loading historical data...
Loading historical data...
Loading historical data...
Loading historical data...

Documentation

Showing up to 5 results
|